Weather History for LGMT - July, 2013

Change the Weather History Date:

Tuesday, July 9, 2013

  Actual Average Record
Temperature  
Mean Temperature 84 °F -  
Max Temperature 92 °F 87 °F 105 °F (2000)
Min Temperature 75 °F 71 °F 66 °F (1998)
Cooling Degree Days 18    
Growing Degree Days 34 (Base 50)    
Moisture  
Dew Point 64 °F    
Average Humidity 52    
Maximum Humidity 74    
Minimum Humidity 33    
Precipitation  
Precipitation 0.00 in 0.00 in - ()
Sea Level Pressure  
Sea Level Pressure 29.84 in    
Wind  
Wind Speed 6 mph ()    
Max Wind Speed 10 mph    
Max Gust Speed -    
Visibility 7.7 miles    
Events      
Averages and records for this station are not official NWS values.
T = Trace of Precipitation, MM = Missing Value Source: Averaged Metar Reports

Daily Weather History Graph

Daily Weather History Graph

Search for Another Location

Airport or City:

Trip Planner

Search our weather history database for the weather conditions in past years. The results will help you decide how hot, cold, wet, or windy it might be!

Date:

Astronomy

Jul. 09, 2013 Rise Set
Actual Time 5:55 AM EEST 8:41 PM EEST
Civil Twilight 5:24 AM EEST 9:13 PM EEST
Nautical Twilight 4:44 AM EEST 9:52 PM EEST
Astronomical Twilight 3:59 AM EEST 10:37 PM EEST
Moon 7:01 AM EEST (7/9) 9:09 PM EEST (7/9)
Length of Visible Light 15h 48m
Length of Day
14h 45m
New Moon, 1% of the Moon is Illuminated
Jul 9
New Moon
Jul 16
First Quarter
Jul 22
Full
Jul 29
Last Quarter
Aug 7
New

Hourly Weather History & Observations

Time (EEST) Temp. Heat Index Dew Point Humidity Pressure Visibility Wind Dir Wind Speed Gust Speed Precip Events Conditions
12:50 AM 80.6 °F 80.8 °F 57.2 °F 45% 29.92 in - North - - N/A   Clear
1:50 AM 78.8 °F - 59.0 °F 51% 29.92 in - North - - N/A   Clear
2:50 AM 78.8 °F - 59.0 °F 51% 29.92 in - North - - N/A   Clear
3:00 AM 78 °F - 59 °F 41% 29.93 in 9 mi WNW 8.1 mph - -  
3:50 AM 78.8 °F - 60.8 °F 54% 29.92 in - North - - N/A   Clear
4:20 AM 78.8 °F - 60.8 °F 54% 29.92 in - North - - N/A   Clear
4:50 AM 77.0 °F - 60.8 °F 57% 29.89 in - North - - N/A   Clear
5:20 AM 77.0 °F - 60.8 °F 57% 29.89 in - North - - N/A   Partly Cloudy
5:50 AM 77.0 °F - 60.8 °F 57% 29.89 in - North - - N/A   Partly Cloudy
6:20 AM 77.0 °F - 60.8 °F 57% 29.89 in - North - - N/A   Partly Cloudy
6:50 AM 77.0 °F - 60.8 °F 57% 29.89 in - North - - N/A   Clear
7:20 AM 77.0 °F - 60.8 °F 57% 29.89 in - North - - N/A   Clear
7:50 AM 77.0 °F - 68.0 °F 74% 29.89 in - North - - N/A   Clear
8:20 AM 77.0 °F - 68.0 °F 74% 29.89 in - North - - N/A   Clear
8:50 AM 78.8 °F - 64.4 °F 61% 29.89 in - North - - N/A   Clear
9:00 AM 78 °F - 65 °F 55% 29.91 in 7 mi NNW 6.9 mph - -  
9:20 AM 78.8 °F - 64.4 °F 61% 29.89 in - North - - N/A   Clear
9:50 AM 80.6 °F 81.8 °F 62.6 °F 54% 29.89 in - North - - N/A   Clear
10:20 AM 80.6 °F 81.8 °F 62.6 °F 54% 29.89 in - North - - N/A   Clear
10:50 AM 82.4 °F 84.6 °F 66.2 °F 58% 29.86 in - North - - N/A   Clear
11:20 AM 84.2 °F 85.6 °F 64.4 °F 51% 29.86 in - North - - N/A   Clear
11:50 AM 84.2 °F 85.0 °F 62.6 °F 48% 29.86 in - North - - N/A   Clear
12:20 PM 84.2 °F 85.0 °F 62.6 °F 48% 29.86 in - North - - N/A   Clear
12:50 PM 86.0 °F 86.6 °F 62.6 °F 45% 29.86 in - North - - N/A   Clear
1:20 PM 86.0 °F 86.6 °F 62.6 °F 45% 29.86 in - North - - N/A   Clear
1:50 PM 89.6 °F 90.1 °F 62.6 °F 40% 29.83 in - North - - N/A   Clear
2:20 PM 91.4 °F 92.1 °F 62.6 °F 38% 29.83 in - North - - N/A   Clear
2:50 PM 93.2 °F 96.2 °F 66.2 °F 41% 29.83 in - North - - N/A   Clear
3:00 PM 92 °F - 66 °F 33% 29.83 in 9 mi NW 10.4 mph - -  
3:20 PM 93.2 °F 96.2 °F 66.2 °F 41% 29.83 in - North - - N/A   Clear
3:50 PM 91.4 °F 93.2 °F 64.4 °F 41% 29.77 in - North - - N/A   Partly Cloudy
4:20 PM 91.4 °F 93.2 °F 64.4 °F 41% 29.77 in - North - - N/A   Partly Cloudy
4:50 PM 89.6 °F 91.1 °F 64.4 °F 43% 29.80 in - North - - N/A   Clear
5:20 PM 89.6 °F 91.1 °F 64.4 °F 43% 29.80 in - North - - N/A   Partly Cloudy
5:50 PM 87.8 °F 91.4 °F 68.0 °F 52% 29.77 in - North - - N/A   Partly Cloudy
6:20 PM 87.8 °F 91.4 °F 68.0 °F 52% 29.77 in - North - - N/A   Partly Cloudy
6:50 PM 87.8 °F 91.4 °F 68.0 °F 52% 29.77 in - North - - N/A   Partly Cloudy
7:20 PM 87.8 °F 91.4 °F 68.0 °F 52% 29.77 in - North - - N/A   Partly Cloudy
7:50 PM 86.0 °F 89.4 °F 68.0 °F 55% 29.77 in - North - - N/A   Clear
8:20 PM 84.2 °F 87.3 °F 68.0 °F 58% 29.77 in - North - - N/A   Clear
8:50 PM 84.2 °F 86.6 °F 66.2 °F 55% 29.77 in - North - - N/A   Clear
9:00 PM 85 °F - 66 °F 43% 29.79 in 6 mi WNW 4.6 mph - -  
9:20 PM 84.2 °F 86.6 °F 66.2 °F 55% 29.77 in - North - - N/A   Clear
9:50 PM 82.4 °F 84.6 °F 66.2 °F 58% 29.80 in - North - - N/A   Clear
10:20 PM 82.4 °F 84.6 °F 66.2 °F 58% 29.80 in - North - - N/A   Clear
10:50 PM 80.6 °F 82.3 °F 64.4 °F 58% 29.80 in - North - - N/A   Clear
11:20 PM 80.6 °F 82.3 °F 64.4 °F 58% 29.80 in - North - - N/A   Clear
11:50 PM 80.6 °F 82.3 °F 64.4 °F 58% 29.80 in - North - - N/A   Clear